Location: Beang
(6.6177°N, 10.9863°W)
Time: 22:34:00
(UTC+00:00)

Cosmos 1844 Rocket - Pass Details

Date: 07 June 2020
Orbit: 826 x 843 km, 71.0° (Epoch: 10 July)

Event Time Altitude Azimuth Distance (km) Brightness Sun altitude
Rises 05:35:11 0° 324° (NW) 3,352 5.7 -12.8°
Reaches altitude 10° 05:37:56 10° 313° (NW) 2,419 4.9 -12.2°
Maximum altitude 05:42:33 27° 256° (WSW) 1,522 3.5 -11.2°
Drops below altitude 10° 05:47:11 10° 199° (SSW) 2,422 4.7 -10.1°
Sets 05:49:58 0° 187° (S) 3,356 5.5 -9.5°
